Pocatello, ID

4:46 AM MDT on October 21, 2017 (GMT -0600)
Pocatello Regional

Weather History for KPIH - November, 2012

Change the Weather History Date:

Monday, November 12, 2012

  Actual Average Record
Temperature  
Mean Temperature 28 °F 36 °F  
Max Temperature 36 °F 47 °F 70 °F (1999)
Min Temperature 20 °F 25 °F 1 °F (2014)
Degree Days  
Heating Degree Days 37 29  
Month to date heating degree days 288 318  
Since 1 July heating degree days 986 1125  
Cooling Degree Days 0 0  
Month to date cooling degree days 0 0  
Year to date cooling degree days 560 392  
Moisture  
Dew Point 20 °F    
Average Humidity 74    
Maximum Humidity 92    
Minimum Humidity 56    
Precipitation  
Precipitation T in 0.03 in 0.33 in (1978)
Month to date precipitation 0.57 0.39  
Year to date precipitation 8.16 10.17  
Snow  
Snow 0.00 in - - ()
Month to date snowfall 4.9  
Since 1 July snowfall 7.1  
Since 1 September snowfall 7.1  
Snow Depth 0.00 in    
Sea Level Pressure  
Sea Level Pressure 30.49 in    
Wind  
Wind Speed 8 mph (South)    
Max Wind Speed 17 mph    
Max Gust Speed 25 mph    
Visibility 10 miles    
Events Snow    
T = Trace of Precipitation, MM = Missing Value Source: NWS Daily Summary

Daily Weather History Graph

Daily Weather History Graph

Search for Another Location

Airport or City:

Trip Planner

Search our weather history database for the weather conditions in past years. The results will help you decide how hot, cold, wet, or windy it might be!

Date:

Astronomy

Nov. 12, 2012 Rise Set
Actual Time 7:19 AM MST 5:09 PM MST
Civil Twilight 6:49 AM MST 5:39 PM MST
Nautical Twilight 6:14 AM MST 6:13 PM MST
Astronomical Twilight 5:41 AM MST 6:47 PM MST
Moon 5:48 AM MST (11/12) 4:17 PM MST (11/12)
Length of Visible Light 10h 50m
Length of Day
9h 49m
Waning Crescent, 2% of the Moon is Illuminated
Nov 12
Waning Crescent
Nov 13
New
Nov 20
First Quarter
Nov 28
Full
Dec 6
Last Quarter

Hourly Weather History & Observations

Time (MST) Temp. Windchill Dew Point Humidity Pressure Visibility Wind Dir Wind Speed Gust Speed Precip Events Conditions
12:53 AM 23.0 °F 14.7 °F 14.0 °F 68% 30.51 in 10.0 mi SW 6.9 mph - N/A   Scattered Clouds
1:53 AM 23.0 °F 14.7 °F 12.9 °F 65% 30.51 in 10.0 mi South 6.9 mph - N/A   Scattered Clouds
2:53 AM 24.1 °F 13.1 °F 12.9 °F 62% 30.51 in 10.0 mi South 11.5 mph - N/A   Clear
3:53 AM 25.0 °F 16.3 °F 15.1 °F 66% 30.50 in 10.0 mi South 8.1 mph - N/A   Clear
4:53 AM 21.9 °F - 14.0 °F 72% 30.52 in 10.0 mi Calm Calm - N/A   Clear
5:53 AM 25.0 °F 19.3 °F 16.0 °F 69% 30.52 in 10.0 mi SE 4.6 mph - N/A   Clear
6:53 AM 25.0 °F - 16.0 °F 69% 30.53 in 10.0 mi Calm Calm - N/A   Clear
7:53 AM 26.1 °F 18.4 °F 17.1 °F 69% 30.53 in 10.0 mi NE 6.9 mph - N/A   Mostly Cloudy
8:53 AM 30.0 °F 26.5 °F 18.0 °F 61% 30.52 in 10.0 mi Variable 3.5 mph - N/A   Mostly Cloudy
9:53 AM 30.0 °F 18.3 °F 18.0 °F 61% 30.52 in 10.0 mi South 17.3 mph 25.3 mph N/A   Clear
10:53 AM 32.0 °F 21.6 °F 19.0 °F 59% 30.53 in 10.0 mi South 15.0 mph 19.6 mph N/A   Clear
11:53 AM 35.1 °F 25.5 °F 21.0 °F 57% 30.49 in 10.0 mi South 15.0 mph - N/A   Scattered Clouds
12:53 PM 35.1 °F 25.5 °F 21.0 °F 57% 30.47 in 10.0 mi South 15.0 mph - N/A   Mostly Cloudy
1:53 PM 35.1 °F 26.9 °F 23.0 °F 61% 30.46 in 10.0 mi South 11.5 mph - N/A   Mostly Cloudy
2:53 PM 35.1 °F 29.3 °F 21.9 °F 59% 30.45 in 10.0 mi South 6.9 mph - N/A   Mostly Cloudy
3:53 PM 34.0 °F 26.0 °F 23.0 °F 64% 30.45 in 10.0 mi South 10.4 mph - N/A   Overcast
4:53 PM 34.0 °F 25.0 °F 21.9 °F 61% 30.46 in 10.0 mi South 12.7 mph - N/A   Overcast
6:53 PM 30.9 °F 22.8 °F 25.0 °F 79% 30.47 in 9.0 mi South 9.2 mph - 0.00 in Snow Light Snow
7:53 PM 30.0 °F 26.5 °F 26.1 °F 85% 30.47 in 4.0 mi SSE 3.5 mph - 0.00 in Snow Light Snow
8:53 PM 30.0 °F 26.5 °F 28.0 °F 92% 30.46 in 4.0 mi NE 3.5 mph - 0.00 in Snow Light Snow
9:53 PM 28.9 °F 25.2 °F 26.1 °F 89% 30.45 in 10.0 mi NNW 3.5 mph - 0.00 in   Overcast
10:53 PM 28.9 °F - 25.0 °F 85% 30.44 in 10.0 mi Calm Calm - N/A   Overcast
11:53 PM 28.9 °F 25.2 °F 25.0 °F 85% 30.44 in 10.0 mi North 3.5 mph - N/A   Overcast